When you browse on this site, cookies collect data to enhance your experience and personalize the content and advertising you see.
Visit our Privacy Policy to learn more. By continuing to use the site, you agree to this use of cookies and data.
  • en Belgique
  • Liste des pays
  • À 7 jours
  • Température de l'eau
  • Carte satellitaire
  • Carte météo
  • Widgets météo
  • user-avatar
    Se connecter

    Météo par heure à Djelfa

    Ce jour, 18 Juillet, Jeudi

    Heure Température Précipitation Vent Pression Humidité
    00:00 +26°C° 0.4 mm 6 m/s 666 mmHg 45%
    01:00 +24°C° 0.1 mm 7 m/s 666 mmHg 48%
    02:00 +23°C° 0.1 mm 7 m/s 665 mmHg 50%
    03:00 +23°C° 0.1 mm 7 m/s 664 mmHg 53%
    04:00 +23°C° 0.1 mm 6 m/s 665 mmHg 52%
    05:00 +23°C° 0.1 mm 6 m/s 665 mmHg 52%
    06:00 +23°C° 0.1 mm 5 m/s 665 mmHg 52%
    07:00 +26°C° 0 mm 5 m/s 666 mmHg 47%
    08:00 +27°C° 0 mm 5 m/s 666 mmHg 43%
    09:00 +28°C° 0 mm 5 m/s 666 mmHg 39%
    10:00 +29°C° 0 mm 5 m/s 666 mmHg 36%
    11:00 +30°C° 0 mm 5 m/s 666 mmHg 33%
    12:00 +32°C° 0 mm 6 m/s 666 mmHg 30%
    13:00 +33°C° 0 mm 5 m/s 666 mmHg 29%
    14:00 +33°C° 0 mm 5 m/s 666 mmHg 28%
    15:00 +33°C° 0 mm 5 m/s 665 mmHg 27%
    16:00 +33°C° 0 mm 4 m/s 665 mmHg 28%
    17:00 +33°C° 0 mm 4 m/s 665 mmHg 28%
    18:00 +33°C° 0 mm 3 m/s 666 mmHg 28%
    19:00 +31°C° 0 mm 3 m/s 666 mmHg 28%
    20:00 +30°C° 0 mm 3 m/s 666 mmHg 29%
    21:00 +29°C° 0 mm 3 m/s 666 mmHg 29%
    22:00 +28°C° 0 mm 3 m/s 666 mmHg 31%
    23:00 +28°C° 0 mm 4 m/s 666 mmHg 32%

    Demain, 19 Juillet, Vendredi

    Heure Température Précipitation Vent Pression Humidité
    00:00 +27°C° 0 mm 4 m/s 666 mmHg 33%
    01:00 +27°C° 0 mm 4 m/s 666 mmHg 33%
    02:00 +26°C° 0 mm 4 m/s 666 mmHg 34%
    03:00 +26°C° 0 mm 3 m/s 665 mmHg 34%
    04:00 +26°C° 0 mm 4 m/s 666 mmHg 36%
    05:00 +25°C° 0 mm 4 m/s 666 mmHg 38%
    06:00 +25°C° 0 mm 4 m/s 666 mmHg 41%
    07:00 +27°C° 0 mm 5 m/s 667 mmHg 37%
    08:00 +29°C° 0 mm 5 m/s 667 mmHg 34%
    09:00 +30°C° 0 mm 6 m/s 668 mmHg 31%
    10:00 +32°C° 0 mm 5 m/s 668 mmHg 28%
    11:00 +33°C° 0 mm 5 m/s 668 mmHg 25%
    12:00 +35°C° 0 mm 5 m/s 668 mmHg 23%
    13:00 +35°C° 0 mm 5 m/s 668 mmHg 22%
    14:00 +36°C° 0 mm 4 m/s 667 mmHg 20%
    15:00 +36°C° 0 mm 3 m/s 667 mmHg 19%
    16:00 +36°C° 0 mm 4 m/s 667 mmHg 19%
    17:00 +36°C° 0 mm 4 m/s 667 mmHg 18%
    18:00 +36°C° 0 mm 4 m/s 667 mmHg 18%
    19:00 +35°C° 0 mm 5 m/s 667 mmHg 21%
    20:00 +34°C° 0 mm 6 m/s 667 mmHg 24%
    21:00 +33°C° 0 mm 7 m/s 667 mmHg 27%
    22:00 +32°C° 0.1 mm 6 m/s 667 mmHg 30%
    23:00 +30°C° 0.1 mm 5 m/s 667 mmHg 32%

    Après-demain, 20 Juillet, Samedi

    Heure Température Précipitation Vent Pression Humidité
    00:00 +29°C° 0.1 mm 5 m/s 667 mmHg 35%
    01:00 +28°C° 0 mm 6 m/s 667 mmHg 36%
    02:00 +28°C° 0 mm 6 m/s 667 mmHg 36%
    03:00 +28°C° 0 mm 7 m/s 666 mmHg 37%
    04:00 +28°C° 0 mm 7 m/s 667 mmHg 37%
    05:00 +28°C° 0 mm 7 m/s 667 mmHg 37%
    06:00 +28°C° 0 mm 6 m/s 667 mmHg 37%
    07:00 +29°C° 0 mm 7 m/s 668 mmHg 34%
    08:00 +31°C° 0 mm 8 m/s 668 mmHg 30%
    09:00 +32°C° 0 mm 9 m/s 669 mmHg 27%
    10:00 +34°C° 0 mm 8 m/s 669 mmHg 24%
    11:00 +35°C° 0 mm 8 m/s 669 mmHg 21%
    12:00 +38°C° 0 mm 7 m/s 669 mmHg 18%
    13:00 +38°C° 0 mm 6 m/s 669 mmHg 17%
    14:00 +39°C° 0 mm 5 m/s 669 mmHg 16%
    15:00 +38°C° 0 mm 4 m/s 668 mmHg 15%
    16:00 +36°C° 0 mm 6 m/s 668 mmHg 19%
    17:00 +35°C° 0 mm 8 m/s 668 mmHg 23%
    18:00 +33°C° 0 mm 11 m/s 668 mmHg 27%
    19:00 +31°C° 0.3 mm 10 m/s 668 mmHg 32%
    20:00 +28°C° 0.3 mm 10 m/s 669 mmHg 37%
    21:00 +27°C° 0.3 mm 9 m/s 669 mmHg 43%
    22:00 +28°C° 0.1 mm 6 m/s 669 mmHg 39%
    23:00 +29°C° 0.1 mm 4 m/s 669 mmHg 36%

    21 Juillet, Dimanche

    Heure Température Précipitation Vent Pression Humidité
    00:00 +29°C° 0.1 mm 1 m/s 669 mmHg 32%
    01:00 +28°C° 0 mm 1 m/s 668 mmHg 35%
    02:00 +28°C° 0 mm 2 m/s 668 mmHg 37%
    03:00 +27°C° 0 mm 2 m/s 668 mmHg 40%
    04:00 +27°C° 0 mm 2 m/s 668 mmHg 39%
    05:00 +27°C° 0 mm 1 m/s 668 mmHg 38%
    06:00 +27°C° 0 mm 1 m/s 668 mmHg 37%
    07:00 +29°C° 0 mm 1 m/s 669 mmHg 32%
    08:00 +31°C° 0 mm 1 m/s 670 mmHg 27%
    09:00 +33°C° 0 mm 1 m/s 670 mmHg 22%
    10:00 +34°C° 0 mm 1 m/s 670 mmHg 20%
    11:00 +36°C° 0 mm 2 m/s 670 mmHg 18%
    12:00 +37°C° 0 mm 3 m/s 670 mmHg 17%
    13:00 +37°C° 0 mm 3 m/s 670 mmHg 16%
    14:00 +38°C° 0 mm 4 m/s 670 mmHg 16%
    15:00 +39°C° 0 mm 5 m/s 670 mmHg 15%
    16:00 +35°C° 0.3 mm 6 m/s 669 mmHg 23%
    17:00 +32°C° 0.3 mm 7 m/s 669 mmHg 30%
    18:00 +28°C° 0.3 mm 8 m/s 668 mmHg 38%
    19:00 +28°C° 0.4 mm 6 m/s 668 mmHg 39%
    20:00 +28°C° 0.4 mm 4 m/s 669 mmHg 40%
    21:00 +28°C° 0.4 mm 2 m/s 669 mmHg 41%
    22:00 +28°C° 0 mm 2 m/s 669 mmHg 38%
    23:00 +28°C° 0 mm 2 m/s 669 mmHg 34%

    22 Juillet, Lundi

    Heure Température Précipitation Vent Pression Humidité
    00:00 +28°C° 0 mm 2 m/s 669 mmHg 31%
    01:00 +28°C° 0 mm 2 m/s 669 mmHg 32%
    02:00 +28°C° 0 mm 2 m/s 668 mmHg 34%
    03:00 +27°C° 0 mm 2 m/s 668 mmHg 35%
    04:00 +27°C° 0 mm 2 m/s 668 mmHg 37%
    05:00 +27°C° 0 mm 2 m/s 668 mmHg 39%
    06:00 +27°C° 0 mm 2 m/s 669 mmHg 40%
    07:00 +28°C° 0 mm 3 m/s 669 mmHg 38%
    08:00 +29°C° 0 mm 3 m/s 669 mmHg 36%
    09:00 +29°C° 0 mm 4 m/s 670 mmHg 34%
    10:00 +30°C° 0 mm 4 m/s 670 mmHg 31%
    11:00 +32°C° 0 mm 4 m/s 670 mmHg 29%
    12:00 +33°C° 0 mm 4 m/s 669 mmHg 27%
    13:00 +34°C° 0 mm 4 m/s 669 mmHg 25%
    14:00 +35°C° 0 mm 4 m/s 669 mmHg 24%
    15:00 +35°C° 0 mm 4 m/s 669 mmHg 23%
    16:00 +34°C° 0.1 mm 4 m/s 669 mmHg 24%
    17:00 +34°C° 0.1 mm 4 m/s 669 mmHg 25%
    18:00 +33°C° 0.1 mm 4 m/s 669 mmHg 27%
    19:00 +32°C° 0.1 mm 4 m/s 669 mmHg 30%
    20:00 +30°C° 0.1 mm 3 m/s 669 mmHg 33%
    21:00 +28°C° 0.1 mm 3 m/s 669 mmHg 37%
    22:00 +28°C° 0 mm 2 m/s 668 mmHg 38%
    23:00 +27°C° 0 mm 2 m/s 668 mmHg 39%

    23 Juillet, Mardi

    Heure Température Précipitation Vent Pression Humidité
    00:00 +27°C° 0 mm 1 m/s 667 mmHg 40%
    01:00 +26°C° 0 mm 1 m/s 667 mmHg 42%
    02:00 +26°C° 0 mm 1 m/s 667 mmHg 43%
    03:00 +25°C° 0 mm 1 m/s 666 mmHg 44%
    04:00 +25°C° 0 mm 2 m/s 667 mmHg 44%
    05:00 +25°C° 0 mm 3 m/s 667 mmHg 44%
    06:00 +25°C° 0 mm 4 m/s 667 mmHg 44%
    07:00 +27°C° 0 mm 5 m/s 667 mmHg 40%
    08:00 +28°C° 0 mm 6 m/s 668 mmHg 35%
    09:00 +30°C° 0 mm 7 m/s 668 mmHg 31%
    10:00 +32°C° 0 mm 6 m/s 668 mmHg 29%
    11:00 +33°C° 0 mm 6 m/s 668 mmHg 26%
    12:00 +34°C° 0 mm 6 m/s 668 mmHg 24%
    13:00 +34°C° 0 mm 5 m/s 668 mmHg 22%
    14:00 +35°C° 0 mm 5 m/s 667 mmHg 20%
    15:00 +36°C° 0 mm 5 m/s 667 mmHg 18%
    16:00 +35°C° 0 mm 4 m/s 667 mmHg 18%
    17:00 +35°C° 0 mm 4 m/s 667 mmHg 18%
    18:00 +34°C° 0 mm 4 m/s 666 mmHg 18%
    19:00 +33°C° 0 mm 3 m/s 666 mmHg 21%
    20:00 +31°C° 0 mm 3 m/s 666 mmHg 24%
    21:00 +29°C° 0 mm 2 m/s 666 mmHg 27%
    22:00 +29°C° 0 mm 3 m/s 666 mmHg 29%
    23:00 +28°C° 0 mm 5 m/s 666 mmHg 30%
    Voir plus